Tracking 28915 objects as of 29-May-2024
HD Live streaming from Space Station
objects crossing your sky now

STARLINK-6231

Track STARLINK-6231 now!
10-day predictions
STARLINK-6231 is classified as:


NORAD ID: 56779
Int'l Code: 2023-078N
Perigee: 577.0 km
Apogee: 581.4 km
Inclination: 70.0 °
Period: 96.1 minutes
Semi major axis: 6950 km
RCS: Unknown
Launch date: May 31, 2023
Source: United States (US)
Launch site: AIR FORCE WESTERN TEST RANGE (AFWTR)
Your satellite tracking list
Your tracking list is empty




NASA's NSSDC Master Catalog

Two Line Element Set (TLE):
1 56779U 23078N   24150.18360981 -.00000308  00000-0 -18020-4 0  9990
2 56779  69.9984 162.0965 0003123 267.3273  92.7528 14.98326943 56147
Source of the keplerian elements: AFSPC